Date,TemperatureHighF,TemperatureAvgF,TemperatureLowF,DewpointHighF,DewpointAvgF,DewpointLowF,HumidityHigh,HumidityAvg,HumidityLow,PressureMaxIn,PressureMinIn,WindSpeedMaxMPH,WindSpeedAvgMPH,GustSpeedMaxMPH,PrecipitationSumIn
2013-11-1,51.3,41.2,30.7,43.3,35.8,25.9,87,81,69,29.64,29.46,5,0,12,0.01
2013-11-2,45.7,40.9,30.2,40.5,35.9,25.7,87,82,77,29.46,28.82,15,3,26,0.19
2013-11-3,48.0,40.1,32.2,40.8,34.9,27.3,86,82,73,29.41,29.23,7,0,9,0.01
2013-11-4,45.7,39.8,30.2,40.5,35.0,25.7,87,83,79,30.15,29.46,15,2,26,0.30
2013-11-5,47.8,43.6,38.1,41.3,38.6,34.6,87,82,77,29.98,29.48,15,3,26,0.33
2013-11-6,44.6,40.7,33.1,39.6,36.1,28.5,85,84,81,30.10,29.93,2,0,4,0.06
2013-11-7,48.2,39.3,32.2,41.8,34.3,27.6,86,82,77,30.16,30.05,4,1,8,0.06
2013-11-8,44.8,37.5,30.7,38.6,31.8,-6.0,87,80,13,30.19,30.11,5,0,8,0.04
2013-11-9,44.4,36.1,29.3,39.3,30.8,23.6,85,81,58,30.34,30.12,5,0,8,0.08
2013-11-10,46.6,38.2,28.4,42.3,32.3,-6.3,85,81,11,30.62,30.34,3,1,5,0.21
2013-11-11,53.8,49.4,43.9,48.3,43.7,38.7,87,81,72,30.75,30.38,6,1,11,0.05
2013-11-12,50.4,40.9,34.5,41.0,35.7,29.4,87,82,68,31.08,30.74,6,1,11,0.02
2013-11-13,46.2,42.2,34.3,42.0,37.3,29.4,86,83,78,31.08,30.62,8,1,18,0.28
2013-11-14,48.6,44.6,41.5,40.1,37.8,35.7,83,77,67,31.17,30.76,9,2,16,0.04
2013-11-15,52.2,47.0,42.6,44.7,41.1,36.6,82,80,74,31.17,31.04,2,0,4,0.01
2013-11-16,54.5,49.9,47.1,46.7,44.2,41.6,85,81,74,31.05,30.93,4,0,8,0.00
2013-11-17,48.4,44.5,39.7,44.1,37.6,1.3,86,79,15,30.96,30.57,4,1,5,0.28
2013-11-18,44.2,36.6,32.9,38.7,28.6,-12.4,84,74,15,30.59,30.50,7,1,11,0.08
2013-11-19,43.7,36.5,30.6,39.2,31.8,26.3,86,83,76,30.74,30.50,6,1,13,0.05
2013-11-20,45.3,42.4,37.6,40.0,35.2,29.9,84,76,64,30.55,30.32,11,3,24,0.05
2013-11-21,43.0,38.6,35.1,31.8,29.8,26.1,78,70,64,30.74,30.53,13,4,20,0.01
2013-11-22,42.3,35.5,27.5,33.5,28.9,21.9,84,77,69,30.90,30.74,5,0,8,0.00
2013-11-23,46.6,38.5,26.2,41.1,34.1,20.9,87,84,79,31.05,30.89,4,0,7,0.00
2013-11-24,47.1,41.0,36.3,42.4,36.9,31.7,88,85,81,31.24,31.04,3,0,4,0.00
2013-11-25,47.5,42.4,39.6,40.7,37.8,35.7,87,84,75,31.35,31.24,3,0,6,0.00
2013-11-26,48.4,43.2,39.0,42.2,38.7,35.7,88,84,78,31.35,31.25,3,0,5,0.00
2013-11-27,51.1,45.0,39.0,44.1,40.4,35.4,87,84,77,31.25,31.18,3,0,4,0.00
2013-11-28,52.3,47.3,44.1,46.0,42.4,39.8,86,83,74,31.21,31.11,3,0,4,0.00
2013-11-29,48.9,45.5,42.6,44.3,39.6,37.7,85,80,70,31.11,30.97,6,2,11,0.04
2013-11-30,47.3,42.9,38.8,42.8,38.8,35.4,88,85,81,31.11,31.05,4,0,8,0.01